Weather in Oktyabrskiy

Russia / Republic of Buryatia     50°13′11″N   107°04′36″E
temp.,
°C
wind,
m/s
gust,
m/s
humid.,
%
clouds,
%
prec.,
mm/h
press.,
hPa
HPBL,
m
9 may, sun
sun923:00+5nnw117178 0.0 101310
02:00+3ese01775 0.0 101310
05:00+2sse218487 0.0 101410
08:00+7sse22615 0.0 1013326
11:00+12s243938 0.0 10101694
14:00+15wnw4535100 0.0 10082103
17:00+16ne122958 0.0 10052097
20:00+10sse236697 0.5 100664
10 may, mon
mon1023:00+7se3380100 0.0 100750
02:00+6ene1181100 0.0 100612
05:00+5nnw3787100 0.0 1008319
08:00+6n5775100 0.0 1010792
11:00+10n6653100 0.0 10101471
14:00+9n4552100 0.1 10101346
17:00+10n7745100 0.1 10101661
20:00+6n6106197 0.1 1014700
11 may, tue
tue1123:00+3nnw497615 0.0 1016517
02:00+4nnw4869100 0.0 10161226
05:00+4wnw2572100 0.0 1016437
08:00+3wnw3587100 0.6 1017535
11:00+7nnw5773100 0.8 10161034
14:00+11nnw684879 1.6 10141870
17:00+12n563632 0.1 10132202
20:00+8nne22545 0.1 101527
12 may, wed
wed1223:00+4se11730 0.0 101710
02:00+3se22800 0.0 101712
05:00+1se22870 0.0 101723
08:00+7sse34623 0.0 1015352
11:00+14s34353 0.0 10111630
14:00+17w3522100 0.0 10073329
17:00+17wsw2320100 0.0 10052986
20:00+13e1134100 0.0 100511
13 may, thu
thu1323:00+10ne224597 0.0 100727
02:00+7nne235852 0.0 100653
05:00+6nnw3567100 0.0 1008135
08:00+10nne51052100 0.0 1008969
11:00+11nne71041100 0.0 10091403
14:00+13n81032100 0.0 10092141
17:00+12n89232 0.0 10112307
20:00+8n510290 0.0 1014514